Regional Weather Roundup
Issued by NWS Columbia, SC

Home | Current Version | Previous Version | Text Only | Print | Product List | Glossary On
Versions: 1 2 3 4 5 6 7 8 9 10 11 12 13 14 15 16 17 18 19 20 21 22 23 24 25 26 27 28 29 30 31 32 33 34 35 36 37 38 39 40 41 42 43 44 45 46 47 48 49 50
000
ASUS42 KCAE 030710
RWRCAE
REGIONAL WEATHER ROUNDUP
NATIONAL WEATHER SERVICE COLUMBIA SC
300 AM EDT THU SEP 03 2015

NOTE: "FAIR" INDICATES FEW OR NO CLOUDS BELOW 12,000 FEET WITH NO
SIGNIFICANT WEATHER AND/OR OBSTRUCTIONS TO VISIBILITY.

NOT ALL STATIONS ARE QUALITY CONTROLLED BY THE NATIONAL
WEATHER SERVICE. USE DATA WITH CAUTION...ESPECIALLY
DEWPOINT OBSERVATIONS.

SCZ001>056-GAZ040-063>065-077-030800-
...UPSTATE SOUTH CAROLINA...

CITY           SKY/WX    TMP DP  RH WIND       PRES   REMARKS
ANDERSON       MOCLDY    72  70  93 CALM      29.98F
LIBERTY        CLOUDY    72  70  94 CALM      29.99F
SPARTANBURG    CLOUDY    77  70  78 NW5       29.97F
CLEMSON        CLOUDY    76  71  85 CALM      30.00F
GREENVILLE     CLOUDY    78  68  71 CALM      29.99F
GREENWOOD      MOCLDY    71  69  93 CALM      29.98F
GREER          CLOUDY    76  70  82 VRB3      29.97F
ROCK HILL      CLOUDY    74  70  87 SW5       29.97F
LAURENS        PTSUNNY   72  72 100 S5        29.97F


...CENTRAL SOUTH CAROLINA...

CITY           SKY/WX    TMP DP  RH WIND       PRES   REMARKS
COLUMBIA APT   PTCLDY    76  71  85 CALM      29.95F
COLUMBIA OWENS PTCLDY    76  72  87 CALM      29.97F
DARLINGTON     MOCLDY    75  70  83 W3        29.96S
FLORENCE       MOCLDY    77  73  87 W5        29.95F
MCENTIRE ANGB  PTCLDY    73  71  94 CALM      29.96F
ORANGEBURG     CLEAR     73  71  93 CALM      29.97F
SUMTER SHAW    PTCLDY    77  72  84 W7        29.93F
NEWBERRY       PTSUNNY   70  68  94 CALM      29.99F
AIKEN          FAIR      72  70  94 CALM      30.00F
BARNWELL       FAIR      75  73  94 CALM      29.97F
MANNING        FAIR      72  72 100 CALM      29.96F
CAMDEN         FAIR      75  72  88 S3        29.96F
LANCASTER      CLOUDY    75  73  94 CALM      29.97F
WINNSBORO      PTSUNNY   73  72  94 CALM      29.97F


...EASTERN AND COASTAL SOUTH CAROLINA...

CITY           SKY/WX    TMP DP  RH WIND       PRES   REMARKS
MYRTLE BEACH   PTCLDY    75  72  88 W6        29.97S
N MYRTLE BCH   CLEAR     76  73  91 W3        29.94F
CONWAY         FAIR      72  72 100 CALM      29.95F FOG
MARION         FAIR      75  72  88 CALM      29.95S
HARTSVILLE     FAIR      77  72  83 W5        29.95F
FLORENCE       MOCLDY    77  73  87 W5        29.95F
DARLINGTON     MOCLDY    75  70  83 W3        29.96S
CHARLESTON APT PTCLDY    75  73  93 CALM      29.96F
MOUNT PLEASANT LGT RAIN  75  75 100 CALM      29.96F
WALTERBORO     SUNNY     73  72  94 CALM      29.98S
BEAUFORT       MOCLDY    76  74  93 CALM      29.96F


...EASTERN GEORGIA...

CITY           SKY/WX    TMP DP  RH WIND       PRES   REMARKS
AUGUSTA BUSH F PTCLDY    72  71  97 CALM      29.96F
AUGUSTA DANIEL PTCLDY    77  71  82 CALM      29.98F
THOMSON        PTCLDY    74  74 100 CALM      30.01F
WASHINGTON     FAIR      77  77 100 W3        29.98S
STATESBORO     CLOUDY    73  32  21 CALM      29.97S
SAVANNAH       MOCLDY    75  73  93 N5        29.95F


...SOUTHERN NORTH CAROLINA...

CITY           SKY/WX    TMP DP  RH WIND       PRES   REMARKS
CHARLOTTE      CLOUDY    75  69  81 N6        29.98F
MONROE         MOCLDY    75  69  81 CALM      29.96F
WADESBORO      MOSUNNY   72  69  90 CALM      29.96S
ROCKINGHAM     SUNNY     74  70  89 CALM      29.95F
RUTHERFORDTON  MOCLDY    76  66  71 N5        30.01F
ASHEVILLE      MOCLDY    71  66  84 CALM      30.07F

$$


USA.gov is the U.S. government's official web portal to all federal, state and local government web resources and services.